Theta_e
338 342 341 341 340 340 339 336 338 341 342 345 349 345 344 339 334 333 335 341 342 339 336 337 333 333 330 328 326 326 325 324 323 323 323 324 324 325 326 326 328 328 328
336 347 344 342 339 338 337 337 335 337 339 340 346 348 345 339 336 333 334 337 342 341 337 337 335 334 331 329 326 325 325 324 323 322 322 323 323 324 324 326 326 326 326
330 339 346 342 340 341 338 336 336 337 338 334 339 348 345 346 337 335 334 335 338 342 341 338 337 334 332 331 327 325 324 323 323 322 321 321 322 323 323 324 325 325 326
340 345 344 343 342 343 342 337 335 337 333 333 332 344 344 344 340 336 335 334 334 334 338 340 338 335 333 331 329 326 324 323 322 321 320 320 320 320 321 322 323 323 324
342 332 331 343 343 345 345 345 342 337 334 334 334 333 342 342 341 340 336 332 332 333 332 339 340 338 334 331 329 327 325 322 321 320 320 319 319 318 319 321 321 322 323
341 338 340 345 346 342 341 342 339 340 341 337 341 342 338 336 334 333 336 333 332 332 331 331 333 333 337 332 329 328 326 322 321 320 319 318 317 317 318 319 320 320 321
343 343 344 342 340 341 340 341 340 335 335 338 334 334 336 335 336 334 333 338 332 332 331 331 329 328 331 334 331 328 326 323 321 319 318 317 316 316 317 317 318 318 319
341 346 345 344 341 341 340 340 338 335 334 333 329 325 322 329 330 335 337 339 335 335 332 331 330 328 327 325 325 328 326 323 321 319 317 316 316 315 316 316 317 317 317
342 345 343 342 343 341 341 340 338 336 331 330 330 326 318 318 319 326 331 340 337 336 333 332 330 329 328 323 326 327 325 323 321 318 317 316 315 314 315 315 315 316 317
345 346 342 341 340 339 338 338 342 339 337 331 329 330 326 325 318 323 333 338 340 337 334 333 332 330 329 324 327 327 324 322 320 317 316 315 314 313 314 314 315 315 315
340 345 343 343 341 340 340 338 337 338 337 334 331 328 327 327 328 326 323 327 334 337 336 335 334 331 329 324 323 324 324 320 317 316 314 313 312 312 313 314 314 314 314
334 335 341 341 342 340 338 338 338 336 336 335 334 331 329 326 324 323 322 324 325 330 337 336 334 331 328 325 325 325 322 318 315 314 312 310 310 310 312 313 313 314 314
332 333 334 335 339 340 340 339 337 336 335 333 333 333 333 329 330 330 324 324 322 327 330 336 334 328 328 325 322 322 320 316 314 312 310 308 308 308 309 311 311 312 312
329 336 338 338 336 336 336 337 335 334 335 334 333 333 332 332 330 330 328 323 320 321 324 326 333 330 326 322 323 322 315 315 313 311 308 307 306 306 307 308 308 309 309
328 329 330 329 330 331 331 329 331 331 331 333 333 333 333 333 333 332 332 328 322 316 316 326 329 328 322 321 321 314 312 314 313 309 307 306 305 305 305 306 306 307 307
323 323 324 326 324 325 326 326 326 328 329 329 331 330 330 332 333 332 331 329 326 322 318 325 327 326 322 320 320 311 311 313 312 309 307 305 304 304 304 304 305 305 306
324 322 323 323 323 322 323 323 324 325 326 325 326 329 329 330 330 331 331 331 328 325 320 324 327 324 319 316 313 310 312 308 308 309 306 305 304 303 303 302 303 303 304
324 323 323 322 323 322 320 321 322 323 321 321 322 325 327 333 329 329 328 328 329 325 323 319 326 320 318 316 312 309 308 309 307 309 306 305 304 303 302 301 301 302 302
325 324 323 322 321 320 318 318 319 318 318 318 319 321 323 326 326 326 327 328 327 327 324 321 326 325 320 317 310 308 308 306 309 311 307 305 304 302 301 301 301 301 301
325 323 322 323 322 320 319 318 317 316 315 317 318 319 320 323 324 326 327 327 328 325 322 322 322 322 318 314 312 306 306 306 306 308 304 303 303 302 301 302 301 301 301
325 324 323 323 321 320 321 318 318 317 316 315 316 320 321 322 324 324 327 326 327 323 320 322 323 321 317 312 309 310 308 306 305 306 301 299 299 293 293 297 298 300 301
327 324 323 322 320 323 315 312 316 316 317 317 315 315 315 319 319 318 318 317 325 322 320 320 323 320 318 315 315 313 311 303 301 307 301 297 297 292 291 290 299 299 300
321 323 321 321 320 320 312 308 309 312 315 314 314 314 315 319 316 317 318 316 314 314 320 324 322 322 319 318 318 315 311 308 307 307 306 296 298 291 291 295 299 299 298
319 322 322 322 320 321 311 309 310 311 312 314 315 315 315 315 315 317 318 320 323 322 319 325 325 324 324 322 321 318 316 314 312 309 310 300 294 290 291 290 299 299 298
314 315 318 319 319 320 310 308 309 313 314 313 316 317 316 315 311 307 314 316 320 322 315 314 313 313 310 311 318 320 316 314 308 307 310 300 295 291 291 291 292 299 298
313 315 315 315 315 319 309 306 308 317 316 314 313 314 310 313 307 305 312 316 318 318 318 317 315 311 311 313 312 321 319 315 310 307 310 303 297 296 291 294 293 294 293
Wind_Speed
4 5 4 5 5 5 6 7 6 7 8 9 8 7 5 8 9 6 5 18 17 15 13 12 10 9 8 8 7 6 9 10 12 13 13 14 15 16 16 16 17 17 17
3 2 5 6 5 5 6 6 8 8 8 7 8 7 5 6 7 8 6 9 17 17 15 13 11 10 8 8 6 5 7 9 11 12 14 14 15 16 16 16 17 17 16
5 4 4 4 7 6 8 6 6 4 7 5 6 6 6 9 7 8 8 6 9 15 16 15 13 11 9 9 7 6 6 8 10 12 13 14 14 16 16 16 17 17 17
1 3 9 2 2 3 4 4 5 3 4 4 3 4 4 10 7 10 8 6 6 7 12 16 15 13 11 9 8 7 6 7 9 11 13 13 14 15 16 15 16 17 17
7 4 9 9 3 1 3 2 1 1 3 3 4 3 4 10 12 7 8 10 10 9 6 15 15 14 12 10 8 8 7 6 8 10 12 13 14 15 15 15 15 16 17
7 8 11 7 2 2 1 2 3 4 2 3 3 5 4 5 4 3 3 6 9 11 10 9 8 8 13 11 9 9 8 5 7 9 11 13 14 15 14 15 15 15 17
12 10 7 3 0 2 3 2 2 2 3 3 4 2 3 5 2 7 7 6 12 12 10 10 6 4 6 13 11 9 9 6 7 8 10 12 14 15 14 15 15 15 15
6 7 6 5 5 3 3 2 1 1 1 1 1 1 3 3 2 5 6 8 7 9 11 12 11 9 7 4 8 12 9 7 7 7 9 11 14 14 14 14 15 15 15
8 8 8 6 6 5 4 5 4 5 2 1 2 4 1 4 1 5 6 7 8 5 9 11 11 10 9 7 11 11 11 9 8 8 9 11 13 14 14 14 15 15 16
11 8 8 7 7 5 5 4 4 4 3 3 1 2 2 4 3 4 2 1 5 7 10 7 10 10 10 8 13 13 14 11 9 9 9 11 13 14 14 14 14 15 16
9 10 9 8 7 5 5 5 3 5 4 3 3 2 4 3 4 5 8 4 2 4 5 4 4 5 7 7 9 12 15 13 11 10 10 11 13 13 14 14 15 15 16
5 7 7 7 7 6 5 4 4 4 4 3 2 3 4 3 2 3 3 3 4 3 5 6 5 6 5 6 12 20 17 15 13 11 11 11 11 13 14 14 15 15 16
3 6 6 6 4 6 6 4 3 3 4 3 4 4 3 3 3 3 3 3 4 3 1 5 8 7 5 6 10 19 20 17 15 13 12 11 11 13 14 13 14 15 16
6 7 7 7 7 6 5 3 2 4 4 4 6 5 3 4 3 4 4 3 2 2 1 4 5 9 9 8 13 22 13 19 17 14 13 11 10 11 13 13 14 15 15
5 8 8 8 7 6 5 3 2 3 3 4 6 5 4 4 4 3 3 4 5 3 3 3 3 7 7 9 14 10 11 18 17 15 14 11 9 11 13 11 13 14 15
6 8 8 8 7 6 5 3 2 3 3 3 4 4 4 3 4 4 3 3 4 5 3 3 2 4 7 6 15 11 12 17 17 16 15 11 9 10 12 11 12 13 14
7 8 8 8 7 5 4 4 4 5 5 5 5 6 6 5 4 4 3 3 3 4 4 1 2 8 7 12 10 8 12 8 8 15 16 12 9 10 11 9 11 12 13
4 6 6 6 5 6 5 6 6 4 4 5 7 5 7 4 6 5 4 6 5 4 4 5 3 4 4 13 11 12 9 7 7 13 16 12 10 9 10 8 9 10 10
7 6 5 5 6 6 6 6 7 6 6 6 6 6 6 5 6 4 5 5 4 3 4 4 4 4 3 9 10 8 8 7 6 15 14 13 11 10 11 8 9 8 8
9 8 7 7 7 6 6 7 6 7 6 6 6 6 5 5 6 7 6 6 5 4 3 4 4 6 9 8 9 11 9 6 7 8 10 9 10 10 9 8 10 9 8
8 8 8 7 7 7 6 7 7 7 7 7 7 7 5 5 6 7 4 6 6 4 3 5 6 6 7 10 13 8 8 8 5 4 6 5 3 3 1 4 7 9 8
7 8 7 8 8 5 10 12 9 7 8 7 7 7 6 7 8 9 12 10 9 6 5 5 7 11 13 11 11 11 10 9 5 5 6 5 5 3 3 2 1 6 10
5 4 5 6 8 8 12 11 12 6 7 7 8 6 6 5 7 7 8 9 6 9 9 10 12 12 11 16 13 13 13 10 6 9 9 6 5 3 4 3 4 2 8
7 7 10 16 8 8 13 15 16 8 7 8 8 8 8 8 7 7 8 8 7 6 7 8 13 13 13 14 17 14 14 8 5 11 9 5 4 3 3 4 7 3 3
6 7 7 11 12 13 15 17 13 7 9 9 9 8 8 7 10 11 7 10 10 6 6 11 8 12 15 16 13 10 9 10 4 7 9 5 5 3 3 2 3 8 3
6 5 6 6 10 12 13 16 13 8 10 7 7 8 13 10 12 14 9 9 10 6 6 5 3 4 11 15 20 15 12 11 5 4 8 5 8 5 3 3 3 3 3
Wind_Direction
216 176 200 192 189 181 202 191 201 212 218 227 214 202 200 145 153 147 149 161 156 160 168 162 160 153 138 122 97 68 50 37 30 27 19 14 10 10 7 7 5 1 1
280 269 189 201 196 207 202 203 205 207 219 208 213 213 152 146 141 140 153 171 168 165 174 179 176 176 162 149 123 94 59 41 32 28 24 13 8 9 8 10 6 357 359
179 325 255 162 197 226 207 214 220 218 223 207 183 191 158 152 131 155 175 173 177 175 179 188 189 185 180 168 151 119 75 49 34 29 26 15 10 5 3 9 9 359 1
343 348 313 210 190 205 170 200 189 174 197 204 240 185 167 115 139 178 154 183 182 181 193 194 187 191 186 178 164 137 95 60 39 31 28 16 12 7 0 2 11 1 4
208 112 230 278 295 19 46 347 125 336 235 239 244 143 162 156 167 189 180 182 182 186 193 204 190 194 190 184 171 146 116 81 51 33 28 16 14 8 3 358 12 1 6
188 175 232 222 129 50 51 13 25 12 234 291 262 76 64 59 65 24 301 211 191 193 188 193 192 193 189 189 178 158 137 107 69 41 28 20 16 10 5 3 5 6 5
188 198 213 207 205 195 247 221 100 73 315 31 2 34 141 146 211 201 194 233 201 199 185 186 179 174 189 189 178 167 146 127 91 57 34 25 17 10 8 8 7 5 8
160 196 173 194 190 194 237 285 137 214 248 107 167 310 345 11 206 237 245 230 221 198 187 189 183 175 178 160 164 170 158 142 107 73 45 26 19 13 10 9 10 8 5
197 175 179 170 184 175 190 213 206 186 192 211 186 148 71 232 239 224 204 217 209 205 185 180 181 186 173 159 169 169 159 148 117 84 55 31 23 17 10 11 12 11 8
179 166 181 167 175 176 196 214 204 186 150 227 322 211 195 149 186 306 334 213 248 226 171 178 182 179 180 165 162 155 158 152 123 94 66 39 28 21 14 11 17 14 12
169 177 177 172 170 174 191 207 222 200 187 167 188 194 219 213 228 242 282 281 140 185 173 195 189 179 164 156 154 159 158 147 127 104 76 50 35 26 20 12 22 19 15
168 167 171 172 176 173 186 216 206 206 211 204 201 213 194 190 241 205 262 286 262 250 170 178 149 154 158 174 162 156 152 145 129 111 86 61 43 34 26 16 25 23 19
177 196 164 158 154 167 179 184 193 222 234 204 215 242 219 208 200 196 170 257 253 289 58 169 146 134 157 170 165 157 155 144 133 117 93 72 49 41 33 20 30 28 24
177 171 159 154 152 152 159 169 200 220 224 228 239 233 247 236 210 214 191 180 306 353 16 147 160 157 166 160 165 159 154 147 134 117 101 81 59 47 40 26 32 34 29
144 140 143 149 155 155 153 142 189 246 242 236 232 239 235 249 242 234 189 173 166 209 237 242 141 160 150 158 163 146 147 148 135 123 109 90 69 54 47 31 37 39 37
139 146 151 152 156 162 158 164 227 266 263 278 250 232 246 247 253 254 238 207 177 189 226 169 190 134 149 146 159 147 149 145 140 131 116 101 82 64 52 36 43 42 39
159 155 154 155 162 164 189 193 221 246 261 275 279 252 248 239 241 242 243 244 221 165 193 129 113 139 147 156 154 151 148 143 141 138 120 112 92 73 58 39 48 42 37
152 155 156 160 176 192 195 202 215 235 248 271 280 279 267 247 233 234 224 233 233 214 146 164 152 148 176 164 155 156 151 151 146 147 128 122 104 84 64 47 54 41 31
182 184 174 187 199 203 200 213 207 219 237 247 256 266 274 272 265 236 228 224 233 232 193 152 162 151 118 153 143 158 158 143 152 150 139 132 117 93 71 64 63 44 24
171 179 188 197 208 213 212 219 214 219 229 239 250 254 263 264 255 251 240 223 223 238 186 167 148 154 154 157 163 161 155 159 151 157 150 148 132 112 86 66 65 49 18
176 178 183 203 209 207 216 220 226 222 221 237 257 254 253 268 284 262 245 257 217 206 156 161 159 149 152 158 179 173 161 154 163 164 148 162 141 108 61 49 48 31 12
191 177 201 192 206 213 221 218 212 222 231 221 224 244 261 288 296 283 272 238 229 187 185 162 179 184 181 178 168 170 155 150 174 169 149 161 149 153 161 216 70 18 6
243 308 266 218 208 207 217 230 237 228 221 219 219 225 245 252 274 286 289 286 260 231 183 169 184 193 178 182 165 166 172 175 162 159 149 163 172 167 194 207 177 24 4
212 202 218 245 225 221 217 226 234 225 226 220 214 213 215 235 247 253 279 286 264 236 197 190 188 189 193 180 182 180 172 151 116 162 160 131 147 187 185 227 186 189 353
218 215 208 217 220 230 215 221 222 214 230 227 220 211 209 225 240 241 254 269 270 235 201 197 230 191 173 170 163 141 161 159 160 172 182 114 158 139 173 225 209 195 182
296 280 257 238 236 237 214 214 211 219 232 233 223 215 215 215 229 243 232 246 263 233 168 170 137 139 166 163 163 170 162 167 163 130 185 113 146 156 163 221 188 159 173